Weather History for Oak Ridge, TN

Change the Weather History Date:

Sunday, August 18, 2013

  Actual Average (KTYS) Record (KTYS)
Temperature  
Mean Temperature 72 °F 78 °F  
Max Temperature 79 °F 88 °F 101 °F (1988)
Min Temperature 66 °F 68 °F 57 °F (1877)
Degree Days  
Heating Degree Days 0 0  
Month to date heating degree days 0  
Since 1 June heating degree days 4  
Since 1 July heating degree days 0  
Cooling Degree Days 6 13  
Month to date cooling degree days 234  
Year to date cooling degree days 1118  
Since 1 June cooling degree days 956  
Growing Degree Days 22 (Base 50)    
Moisture  
Dew Point 66 °F    
Average Humidity 88    
Maximum Humidity 100    
Minimum Humidity 69    
Precipitation  
Precipitation 0.61 in 0.10 in 2.02 in (1894)
Month to date precipitation 2.06  
Year to date precipitation 32.39  
Snow  
Snow 0.00 in 0.00 in - ()
Month to date snowfall 0.0  
Since 1 June snowfall 0.0  
Since 1 July snowfall 0.0  
Snow Depth -    
Sea Level Pressure  
Sea Level Pressure 30.17 in    
Wind  
Wind Speed 1 mph (SSW)    
Max Wind Speed 7 mph    
Max Gust Speed -    
Visibility 8 miles    
Events Fog , Rain    
T = Trace of Precipitation, MM = Missing Value Source: NWS Daily Summary

Daily Weather History Graph

Daily Weather History Graph

Search for Another Location

Airport:

Trip Planner

Search our weather history database for the weather conditions in past years. The results will help you decide how hot, cold, wet, or windy it might be!

Date:

Astronomy

Aug. 18, 2013 Rise Set
Actual Time 6:57 AM EDT 8:22 PM EDT
Civil Twilight 6:30 AM EDT 8:49 PM EDT
Nautical Twilight 5:58 AM EDT 9:22 PM EDT
Astronomical Twilight 5:24 AM EDT 9:55 PM EDT
Moon 6:26 PM EDT (8/18) 4:08 AM EDT (8/18)
Length of Visible Light 14h 18m
Length of Day
13h 24m
Waxing Gibbous, 92% of the Moon is Illuminated
Aug 18
Waxing Gibbous
Aug 20
Full
Aug 28
Last Quarter
Sep 5
New
Sep 12
First Quarter

Hourly Weather History & Observations

Time (EDT) Temp. Dew Point Humidity Pressure Visibility Wind Dir Wind Speed Gust Speed Precip Events Conditions
12:10 AM 66.2 °F 64.4 °F 94% 30.17 in 2.0 mi Calm Calm - 0.04 in Rain Heavy Rain
12:24 AM 66.2 °F 64.4 °F 94% 30.16 in 4.0 mi Calm Calm - 0.07 in Rain Light Rain
12:35 AM 66.2 °F 64.4 °F 94% 30.17 in 5.0 mi Calm Calm - 0.08 in Rain Light Rain
12:53 AM 66.0 °F 64.9 °F 96% 30.13 in 6.0 mi Calm Calm - 0.08 in Rain Light Rain
1:53 AM 66.9 °F 64.9 °F 93% 30.12 in 8.0 mi Calm Calm - 0.01 in   Overcast
2:53 AM 66.9 °F 64.9 °F 93% 30.12 in 7.0 mi Calm Calm - 0.00 in   Overcast
3:16 AM 66.2 °F 64.4 °F 94% 30.15 in 7.0 mi Calm Calm - N/A   Overcast
3:24 AM 66.2 °F 64.4 °F 94% 30.14 in 4.0 mi Calm Calm - 0.00 in Rain Light Rain
3:50 AM 66.2 °F 64.4 °F 94% 30.14 in 7.0 mi Calm Calm - 0.01 in   Overcast
3:53 AM 66.9 °F 64.9 °F 93% 30.11 in 7.0 mi Calm Calm - 0.01 in   Overcast
4:34 AM 66.2 °F 64.4 °F 94% 30.14 in 8.0 mi Calm Calm - N/A   Overcast
4:53 AM 66.9 °F 64.9 °F 93% 30.11 in 8.0 mi Calm Calm - N/A   Overcast
5:09 AM 66.2 °F 64.4 °F 94% 30.14 in 9.0 mi Calm Calm - N/A   Overcast
5:53 AM 66.9 °F 64.9 °F 93% 30.12 in 9.0 mi Calm Calm - N/A   Overcast
6:09 AM 66.2 °F 66.2 °F 100% 30.15 in 7.0 mi Calm Calm - N/A   Overcast
6:53 AM 66.0 °F 66.0 °F 100% 30.14 in 6.0 mi Calm Calm - N/A   Overcast
7:44 AM 66.2 °F 66.2 °F 100% 30.18 in 8.0 mi Calm Calm - N/A   Overcast
7:53 AM 66.9 °F 66.0 °F 97% 30.16 in 7.0 mi Calm Calm - N/A   Overcast
8:32 AM 68.0 °F 66.2 °F 94% 30.19 in 7.0 mi Calm Calm - N/A   Overcast
8:53 AM 68.0 °F 66.0 °F 93% 30.17 in 9.0 mi Calm Calm - N/A   Overcast
9:20 AM 69.8 °F 66.2 °F 88% 30.20 in 10.0 mi Calm Calm - N/A   Overcast
9:30 AM 69.8 °F 66.2 °F 88% 30.20 in 10.0 mi Calm Calm - N/A   Overcast
9:53 AM 69.1 °F 66.0 °F 90% 30.18 in 10.0 mi Calm Calm - N/A   Overcast
10:38 AM 71.6 °F 66.2 °F 83% 30.21 in 10.0 mi Calm Calm - N/A   Overcast
10:53 AM 71.1 °F 66.0 °F 84% 30.19 in 10.0 mi Calm Calm - N/A   Overcast
11:15 AM 69.8 °F 66.2 °F 88% 30.22 in 6.0 mi Calm Calm - 0.00 in Rain Light Rain
11:31 AM 69.8 °F 66.2 °F 88% 30.22 in 2.0 mi Calm Calm - 0.03 in Rain Rain
11:43 AM 69.8 °F 68.0 °F 94% 30.22 in 2.5 mi Calm Calm - 0.05 in Rain Rain
11:51 AM 69.8 °F 66.2 °F 88% 30.22 in 1.5 mi Calm Calm - 0.06 in Rain Heavy Rain
11:53 AM 69.1 °F 68.0 °F 96% 30.20 in 1.0 mi SSW 3.5 mph - 0.07 in Rain Heavy Rain
12:00 PM 69.8 °F 68.0 °F 94% 30.22 in 0.2 mi Calm Calm - 0.16 in Fog , Rain Heavy Rain
12:17 PM 68.0 °F 68.0 °F 100% 30.22 in 1.0 mi South 4.6 mph - 0.37 in Rain Heavy Rain
12:26 PM 69.8 °F 68.0 °F 94% 30.22 in 1.5 mi South 4.6 mph - 0.41 in Rain Heavy Rain
12:33 PM 69.8 °F 68.0 °F 94% 30.23 in 2.0 mi Variable 5.8 mph - 0.43 in Rain Rain
12:44 PM 69.8 °F 68.0 °F 94% 30.23 in 10.0 mi Variable 3.5 mph - 0.44 in Rain Light Rain
12:53 PM 71.1 °F 68.0 °F 90% 30.19 in 10.0 mi Calm Calm - 0.44 in Rain Light Rain
1:17 PM 73.4 °F 68.0 °F 83% 30.20 in 10.0 mi Variable 3.5 mph - 0.00 in   Mostly Cloudy
1:26 PM 73.4 °F 68.0 °F 83% 30.20 in 10.0 mi South 4.6 mph - 0.00 in   Mostly Cloudy
1:43 PM 75.2 °F 66.2 °F 73% 30.19 in 10.0 mi Variable 4.6 mph - 0.00 in   Scattered Clouds
1:53 PM 75.9 °F 66.9 °F 74% 30.16 in 10.0 mi Variable 4.6 mph - 0.00 in   Scattered Clouds
2:24 PM 75.2 °F 66.2 °F 73% 30.19 in 10.0 mi SSW 5.8 mph - N/A   Overcast
2:35 PM 77.0 °F 66.2 °F 69% 30.18 in 10.0 mi Variable 4.6 mph - N/A   Mostly Cloudy
2:53 PM 77.0 °F 66.0 °F 69% 30.14 in 10.0 mi Variable 4.6 mph - N/A   Mostly Cloudy
3:44 PM 77.0 °F 66.2 °F 69% 30.16 in 10.0 mi Variable 4.6 mph - N/A   Overcast
3:53 PM 75.9 °F 64.9 °F 69% 30.13 in 10.0 mi Variable 6.9 mph - N/A   Overcast
4:53 PM 73.0 °F 64.9 °F 76% 30.13 in 10.0 mi Variable 4.6 mph - 0.00 in   Overcast
5:53 PM 73.0 °F 64.9 °F 76% 30.13 in 10.0 mi Variable 3.5 mph - 0.00 in   Overcast
6:53 PM 73.9 °F 66.0 °F 76% 30.12 in 10.0 mi Variable 3.5 mph - N/A   Scattered Clouds
7:53 PM 73.0 °F 66.9 °F 81% 30.13 in 10.0 mi Calm Calm - N/A   Partly Cloudy
8:53 PM 72.0 °F 68.0 °F 87% 30.14 in 10.0 mi Calm Calm - N/A   Mostly Cloudy
9:53 PM 71.1 °F 68.0 °F 90% 30.16 in 10.0 mi Calm Calm - N/A   Overcast
10:53 PM 71.1 °F 69.1 °F 93% 30.16 in 10.0 mi Calm Calm - N/A   Overcast
11:13 PM 71.6 °F 69.8 °F 94% 30.19 in 10.0 mi Calm Calm - N/A   Overcast
11:36 PM 71.6 °F 68.0 °F 88% 30.18 in 10.0 mi Calm Calm - N/A   Overcast
11:53 PM 71.1 °F 69.1 °F 93% 30.15 in 10.0 mi Calm Calm - N/A   Overcast